{"data":{"norad_id":64378,"epoch":"2026-09-20T22:40:33.627360Z","epoch_age_seconds":95783,"freshness":"FRESH","line1":"1 64378U 25127J   26263.94483365  .00133778  00000+0  10262-2 0  9997","line2":"2 64378  43.0022 347.3593 0001369 287.0852  72.9866 15.70912366 74320","mean_motion":15.70912366,"eccentricity":0.0001369,"inclination_deg":43.0022,"raan_deg":347.3593,"arg_perigee_deg":287.0852,"mean_anomaly_deg":72.9866,"bstar":0.0010262,"rev_number":7432,"period_min":91.666475556918,"perigee_km":355.36629112266,"apogee_km":357.21017675171,"semimajor_km":6734.4252339372,"source":"CELESTRAK","updated_at":"2026-09-21T09:00:35.323288Z"}}